GW5884 Weather Reports


time (UTC)temp
F
wind
direction
speed
knots
gust
knots
rain 1hr
in
rain 24hr
in
rain mn
in
humidity
%
barometer
mb
20260504212512 65 65 5.2 20.9 0.00 0.00 0.00 49 1009.3
20260504212012 65 16 8.7 20.0 0.00 0.00 0.00 49 1009.1
20260504211511 66 21 7.8 15.6 0.00 0.00 0.00 49 1009.3
20260504211010 66 76 7.0 17.4 0.00 0.00 0.00 49 1009.2
20260504210517 66 105 8.7 17.4 0.00 0.00 0.00 49 1009.2
20260504210015 66 105 6.1 19.1 0.00 0.00 0.00 50 1009.2
20260504205511 66 30 7.8 20.9 0.00 0.00 0.00 49 1009.1
20260504205012 67 88 7.8 16.5 0.00 0.00 0.00 47 1009.1
20260504204511 66 51 7.8 23.5 0.00 0.00 0.00 47 1009.0
20260504204009 66 105 8.7 23.5 0.00 0.00 0.00 48 1009.1
20260504203509 66 83 9.6 21.7 0.00 0.00 0.00 49 1009.3
20260504203008 67 63 9.6 20.9 0.00 0.00 0.00 47 1009.2
20260504202508 67 59 8.7 19.1 0.00 0.00 0.00 46 1009.1
20260504201611 67 95 8.7 15.6 0.00 0.00 0.00 45 1009.4
20260504201008 67 78 7.0 16.5 0.00 0.00 0.00 45 1009.3
20260504200505 67 115 8.7 17.4 0.00 0.00 0.00 45 1009.3
20260504200005 67 39 9.6 18.2 0.00 0.00 0.00 45 1009.3
20260504195503 68 67 7.8 19.1 0.00 0.00 0.00 44 1009.3
20260504195007 68 63 9.6 20.0 0.00 0.00 0.00 44 1009.3
20260504194503 68 89 5.2 20.9 0.00 0.00 0.00 45 1009.5
20260504194003 68 66 6.1 25.2 0.00 0.00 0.00 45 1009.4
20260504193506 68 69 13.9 25.2 0.00 0.00 0.00 43 1009.4
20260504193002 69 84 8.7 18.2 0.00 0.00 0.00 43 1009.4
20260504192501 69 65 5.2 19.1 0.00 0.00 0.00 41 1009.4
20260504192002 69 53 8.7 19.1 0.00 0.00 0.00 42 1009.4
20260504191503 68 62 8.7 18.2 0.00 0.00 0.00 43 1009.4
20260504191001 68 130 9.6 20.0 0.00 0.00 0.00 39 1009.4
20260504190601 69 62 10.4 20.0 0.00 0.00 0.00 41 1009.4
20260504190100 69 68 10.4 19.1 0.00 0.00 0.00 41 1009.4
20260504185559 69 69 7.8 19.1 0.00 0.00 0.00 40 1009.6
20260504185059 69 76 4.3 20.0 0.00 0.00 0.00 39 1009.5
20260504184600 69 133 9.6 20.9 0.00 0.00 0.00 39 1009.6
20260504184058 69 105 9.6 19.1 0.00 0.00 0.00 41 1009.6
20260504183556 69 67 6.1 17.4 0.00 0.00 0.00 43 1009.5
20260504183056 68 59 9.6 17.4 0.00 0.00 0.00 39 1009.6
20260504182556 69 84 10.4 21.7 0.00 0.00 0.00 38 1009.7
20260504182054 69 76 11.3 21.7 0.00 0.00 0.00 39 1009.8
20260504181556 68 39 11.3 20.9 0.00 0.00 0.00 40 1009.9
20260504181054 68 66 7.0 18.2 0.00 0.00 0.00 40 1009.7
20260504180553 69 91 11.3 18.2 0.00 0.00 0.00 39 1009.9
20260504180054 69 70 7.0 17.4 0.00 0.00 0.00 43 1009.9
20260504175552 69 109 5.2 15.6 0.00 0.00 0.00 40 1010.0
20260504175051 69 122 7.8 16.5 0.00 0.00 0.00 40 1010.1
20260504174555 69 126 7.0 17.4 0.00 0.00 0.00 42 1010.3
20260504174051 68 95 7.8 17.4 0.00 0.00 0.00 43 1010.4
20260504173549 68 95 7.0 14.8 0.00 0.00 0.00 39 1010.3
20260504173049 69 109 6.1 15.6 0.00 0.00 0.00 40 1010.3
20260504172550 68 80 8.7 15.6 0.00 0.00 0.00 41 1010.3
20260504172050 68 12 4.3 14.8 0.00 0.00 0.00 41 1010.3
20260504171549 69 100 8.7 14.8 0.00 0.00 0.00 41 1010.4
20260504171048 69 19 6.1 14.8 0.00 0.00 0.00 42 1010.4
20260504170545 69 78 4.3 16.5 0.00 0.00 0.00 42 1010.4
20260504151024 65 210 7.0 12.2 0.00 0.00 0.00 41 1011.7
20260504150523 65 85 4.3 18.2 0.00 0.00 0.00 44 1011.8
20260504141013 62 95 7.0 15.6 0.00 0.00 0.00 46 1012.4
20260504140507 62 198 7.0 20.9 0.00 0.00 0.00 46 1012.4
20260504130549 59 85 2.6 16.5 0.00 0.00 0.00 53 1012.7
20260504110513 42 100 0.0 0.0 0.00 0.00 0.00 77 1012.6
20260504100558 37 76 0.9 3.5 0.00 0.00 0.00 81 1012.4
20260504082002 37 158 0.0 0.0 0.00 0.00 0.00 86 1012.0
20260504081502 37 164 0.0 0.0 0.00 0.00 0.00 86 1012.0
20260504081002 37 164 0.0 0.0 0.00 0.00 0.00 86 1012.0
20260504080502 37 164 0.0 0.0 0.00 0.00 0.00 85 1012.1
20260504050547 35 164 0.0 0.0 0.00 0.00 0.00 79 1012.0
20260504045548 36 165 0.0 0.0 0.00 0.00 0.00 79 1012.0
20260504045045 36 165 0.0 0.0 0.00 0.00 0.00 79 1012.0
20260504044547 36 165 0.0 0.0 0.00 0.00 0.00 79 1012.1
20260504044044 36 165 0.0 0.0 0.00 0.00 0.00 79 1012.0
20260504043543 36 165 0.0 0.0 0.00 0.00 0.00 80 1012.1
20260504043107 36 165 0.0 0.0 0.00 0.00 0.00 77 1012.1
20260504042541 36 164 0.0 0.0 0.00 0.00 0.00 77 1012.1
20260504042043 36 164 0.0 0.0 0.00 0.00 0.00 78 1012.1
20260504041541 36 165 0.0 0.0 0.00 0.00 0.00 78 1012.1
20260504041039 37 164 0.0 0.0 0.00 0.00 0.00 78 1012.0
20260504040539 37 164 0.0 0.0 0.00 0.00 0.00 77 1012.0
20260504040041 37 164 0.0 0.0 0.00 0.00 0.00 77 1011.8
20260504035538 37 165 0.0 0.0 0.00 0.00 0.00 75 1011.8
20260504035036 37 165 0.0 0.0 0.00 0.00 0.00 76 1011.7
20260504034545 37 165 0.0 0.0 0.00 0.00 0.00 75 1011.7
20260504034034 38 164 0.0 0.0 0.00 0.00 0.00 75 1011.8
20260504033534 38 165 0.0 0.0 0.00 0.00 0.00 74 1011.8
20260504033033 38 165 0.0 0.0 0.00 0.00 0.00 72 1011.7
20260504032533 38 165 0.0 0.0 0.00 0.00 0.00 74 1011.8
20260504032033 38 165 0.0 0.0 0.00 0.00 0.00 75 1011.7
20260504031535 38 165 0.0 0.0 0.00 0.00 0.00 75 1011.8
20260504031031 38 164 0.0 0.9 0.00 0.00 0.00 73 1011.8
20260504030533 39 164 0.0 1.7 0.00 0.00 0.00 73 1011.8
20260504030036 39 164 0.0 1.7 0.00 0.00 0.00 71 1011.7
20260504025531 39 164 0.0 1.7 0.00 0.00 0.00 71 1011.7
20260504025030 39 164 0.0 1.7 0.00 0.00 0.00 72 1011.7
20260504024534 39 165 0.0 2.6 0.00 0.00 0.00 72 1011.7
20260504024029 40 164 0.0 2.6 0.00 0.00 0.00 71 1011.7
20260504023529 40 164 0.0 0.0 0.00 0.00 0.00 70 1011.8
20260504023029 40 165 0.0 0.0 0.00 0.00 0.00 70 1011.7
20260504022529 40 164 0.0 0.0 0.00 0.00 0.00 69 1011.6
20260504022028 41 164 0.0 0.0 0.00 0.00 0.00 68 1011.7
20260504021530 41 164 0.0 0.0 0.00 0.00 0.00 67 1011.5
20260504021027 41 165 0.0 0.0 0.00 0.00 0.00 65 1011.5
20260504020527 41 164 0.0 0.0 0.00 0.00 0.00 64 1011.4
20260504020035 41 164 0.0 0.0 0.00 0.00 0.00 66 1011.4
20260504015527 42 164 0.0 0.0 0.00 0.00 0.00 65 1011.4
20260504015027 42 164 0.0 0.0 0.00 0.00 0.00 65 1011.4
20260504014526 42 164 0.0 0.0 0.00 0.00 0.00 66 1011.3
20260504014025 42 164 0.0 0.0 0.00 0.00 0.00 65 1011.3
20260504013526 42 164 0.0 0.0 0.00 0.00 0.00 64 1011.3
20260504013030 42 165 0.0 0.9 0.00 0.00 0.00 62 1011.2
20260504012523 42 164 0.0 1.7 0.00 0.00 0.00 62 1011.1
20260504012023 43 164 0.0 1.7 0.00 0.00 0.00 62 1011.1
20260504011522 43 164 0.0 0.0 0.00 0.00 0.00 59 1010.9
20260504011025 43 164 0.0 0.9 0.00 0.00 0.00 57 1010.9
20260504010522 43 164 0.0 0.9 0.00 0.00 0.00 56 1010.8
20260504010022 44 165 0.0 0.9 0.00 0.00 0.00 56 1010.7
20260504005521 44 164 0.0 0.0 0.00 0.00 0.00 55 1010.6
20260504005021 44 164 0.0 0.0 0.00 0.00 0.00 54 1010.6
20260504004536 45 164 0.0 0.0 0.00 0.00 0.00 53 1010.5
20260504004024 45 164 0.0 0.0 0.00 0.00 0.00 53 1010.4
20260504003522 46 164 0.0 1.7 0.00 0.00 0.00 53 1010.3
20260504003020 46 165 0.0 1.7 0.00 0.00 0.00 52 1010.2
20260504002521 47 164 0.0 1.7 0.00 0.00 0.00 51 1010.1
20260504002019 47 165 0.9 1.7 0.00 0.00 0.00 51 1010.0
20260504001530 47 165 0.0 1.7 0.00 0.00 0.00 50 1009.8
20260504001019 48 165 0.0 1.7 0.00 0.00 0.00 51 1009.8
20260504000519 48 165 0.0 2.6 0.00 0.00 0.00 50 1009.8
20260504000019 48 165 0.9 3.5 0.00 0.00 0.00 48 1009.8
20260503235519 49 171 0.0 3.5 0.00 0.00 0.00 49 1009.8
20260503235018 49 165 1.7 5.2 0.00 0.00 0.00 48 1009.7
20260503234520 49 186 0.9 5.2 0.00 0.00 0.00 48 1009.7
20260503234018 50 175 0.9 7.8 0.00 0.00 0.00 48 1009.7
20260503233519 50 218 1.7 10.4 0.00 0.00 0.00 47 1009.7
20260503233018 50 188 3.5 10.4 0.00 0.00 0.00 47 1009.6
20260503232518 51 217 0.9 8.7 0.00 0.00 0.00 47 1009.7
20260503232018 51 199 3.5 10.4 0.00 0.00 0.00 47 1009.5
20260503231521 51 219 4.3 10.4 0.00 0.00 0.00 44 1009.5
20260503231018 51 154 1.7 7.8 0.00 0.00 0.00 46 1009.5
20260503230517 51 211 3.5 11.3 0.00 0.00 0.00 47 1009.4
20260503230017 51 196 1.7 7.0 0.00 0.00 0.00 46 1009.3
20260503225516 51 176 2.6 8.7 0.00 0.00 0.00 46 1009.3
20260503225016 51 177 2.6 8.7 0.00 0.00 0.00 46 1009.3
20260503224516 51 226 3.5 7.8 0.00 0.00 0.00 44 1009.4
20260503224019 51 180 2.6 11.3 0.00 0.00 0.00 45 1009.3
20260503223519 51 120 2.6 14.8 0.00 0.00 0.00 44 1009.3
20260503223016 51 209 2.6 14.8 0.00 0.00 0.00 45 1009.2
20260503222515 51 207 6.1 20.0 0.00 0.00 0.00 44 1009.1
20260503222015 52 213 7.0 20.0 0.00 0.00 0.00 45 1009.0
20260503221516 52 203 3.5 13.0 0.00 0.00 0.00 45 1009.0
20260503221014 52 232 3.5 13.0 0.00 0.00 0.00 47 1009.1
20260503220514 52 275 3.5 11.3 0.00 0.00 0.00 44 1009.0
20260503220027 52 242 4.3 11.3 0.00 0.00 0.00 46 1009.0
20260503215514 52 218 4.3 10.4 0.00 0.00 0.00 46 1009.1
20260503215014 52 222 3.5 13.9 0.00 0.00 0.00 46 1009.0
20260503214527 52 203 5.2 14.8 0.00 0.00 0.00 45 1009.0
20260503214013 52 244 6.1 14.8 0.00 0.00 0.00 44 1009.1
20260503213512 52 189 5.2 16.5 0.00 0.00 0.00 43 1009.0
20260503213025 52 230 6.1 16.5 0.00 0.00 0.00 44 1009.0